C/2022 R3 ( Leonard )

Japanese version
Home page
Updated on December 19, 2023

---------------------------------------------------------------------

* Profile

Discovery Date September 15, 2022
Magnitude 18.9 mag
Discoverer Gregory J. Leonard (Mt. Lemmon)

* Pictures

* Orbital Elements

Epoch 2023 Sept. 13.0 TT = JDT 2460200.5
T 2023 Mar. 5.35841 TT                                  Rudenko
q   5.1290480            (2000.0)            P               Q
z  -0.0001722      Peri.   72.87225     +0.19144438     -0.97661060
 +/-0.0000038      Node     8.23881     +0.41283607     -0.01035219
e   1.0008830      Incl.   43.08289     +0.89045799     +0.21476630
>From 182 observations 2022 Sept. 15-2023 Dec. 11, mean residual 0".6.

* Magnitudes Graph

        m1 = 8.5 + 5 log d + 10.0 log r

---------------------------------------------------------------------

The orbital elements are published on M.P.E.C. 2023-X256.
The magnitudes graphs are made with Comet for Windows.

---------------------------------------------------------------------

Copyright(C) Seiichi Yoshida (comet@aerith.net). All rights reserved.